Weather History for King Salmon, AK

Change the Weather History Date:

Sunday, January 5, 2014

  Actual Average Record
Temperature  
Mean Temperature 40 °F 17 °F  
Max Temperature 42 °F 24 °F 45 °F (1979)
Min Temperature 37 °F - -41 °F (1975)
Degree Days  
Heating Degree Days 25 49  
Month to date heating degree days 153 241  
Since 1 July heating degree days 4396 5054  
Cooling Degree Days 0    
Month to date cooling degree days 0  
Year to date cooling degree days 0  
Moisture  
Dew Point 35 °F    
Average Humidity 0    
Maximum Humidity 0    
Minimum Humidity 0    
Precipitation  
Precipitation 0.05 in 0.03 in 0.60 in (1937)
Month to date precipitation 0.25 0.16  
Year to date precipitation 0.25 0.16  
Snow  
Snow 0.00 in 0.30 in 6.00 in (1984)
Month to date snowfall 1.0 1.4  
Since 1 July snowfall 15.8 20.7  
Snow Depth 0.00 in    
Sea Level Pressure  
Sea Level Pressure 29.24 in    
Wind  
Wind Speed 10 mph (ESE)    
Max Wind Speed 21 mph    
Max Gust Speed 29 mph    
Visibility 10 miles    
Events Rain    
T = Trace of Precipitation, MM = Missing Value Source: NWS Daily Summary

Daily Weather History Graph

Daily Weather History Graph

Search for Another Location

Airport:

Trip Planner

Search our weather history database for the weather conditions in past years. The results will help you decide how hot, cold, wet, or windy it might be!

Date:

Astronomy

Jan. 05, 2014 Rise Set
Actual Time 10:14 AM AKST 4:49 PM AKST
Civil Twilight 9:22 AM AKST 5:41 PM AKST
Nautical Twilight 8:29 AM AKST 6:34 PM AKST
Astronomical Twilight 7:41 AM AKST 7:23 PM AKST
Moon 11:43 AM AKST (1/5) 11:57 PM AKST (1/5)
Length of Visible Light 8h 18m
Length of Day
6h 34m
Waxing Crescent, 26% of the Moon is Illuminated
Jan 5
Waxing Crescent
Jan 7
First Quarter
Jan 15
Full
Jan 23
Last Quarter
Jan 30
New

Hourly Weather History & Observations

Time (AKST) Temp. Windchill Dew Point Humidity Pressure Visibility Wind Dir Wind Speed Gust Speed Precip Events Conditions
12:54 AM 39.2 °F 29.3 °F 33.1 °F 79% 29.09 in 10.0 mi ENE 20.7 mph 28.8 mph N/A   Overcast
1:54 AM 39.0 °F 29.9 °F 34.0 °F 82% 29.10 in 10.0 mi SE 17.3 mph 26.5 mph N/A   Overcast
2:01 AM - - - N/A% 29.10 in - North - - N/A   Unknown
2:54 AM 38.7 °F 30.5 °F 33.8 °F 83% 29.11 in 7.0 mi ESE 13.8 mph 23.0 mph N/A   Overcast
3:54 AM 38.5 °F 31.1 °F 33.4 °F 82% 29.12 in 7.0 mi ESE 11.5 mph 19.6 mph N/A   Overcast
4:54 AM 37.8 °F 31.3 °F 33.3 °F 84% 29.13 in 10.0 mi East 9.2 mph - N/A   Overcast
5:54 AM 37.4 °F 30.8 °F 33.1 °F 84% 29.13 in 10.0 mi East 9.2 mph - N/A   Overcast
6:54 AM 38.8 °F 33.2 °F 33.4 °F 81% 29.14 in 10.0 mi East 8.1 mph - N/A   Overcast
7:54 AM 38.8 °F 33.2 °F 33.4 °F 81% 29.16 in 10.0 mi East 8.1 mph - N/A   Overcast
8:54 AM 39.7 °F 33.7 °F 34.7 °F 82% 29.19 in 10.0 mi ESE 9.2 mph - N/A   Overcast
9:54 AM 40.8 °F 34.1 °F 36.7 °F 85% 29.22 in 10.0 mi ESE 11.5 mph - N/A   Overcast
10:54 AM 39.7 °F 32.7 °F 35.1 °F 83% 29.26 in 10.0 mi ESE 11.5 mph - N/A   Mostly Cloudy
11:54 AM 41.0 °F 34.3 °F 35.8 °F 82% 29.28 in 10.0 mi ESE 11.5 mph - N/A   Mostly Cloudy
12:54 PM 41.5 °F 34.2 °F 36.7 °F 83% 29.30 in 10.0 mi ESE 13.8 mph - N/A   Mostly Cloudy
1:54 PM 41.9 °F 34.6 °F 36.5 °F 81% 29.32 in 10.0 mi ESE 13.8 mph - N/A   Scattered Clouds
2:54 PM 41.7 °F 35.2 °F 35.6 °F 79% 29.34 in 10.0 mi ESE 11.5 mph - N/A   Partly Cloudy
3:54 PM 40.8 °F 34.1 °F 34.7 °F 79% 29.35 in 10.0 mi ESE 11.5 mph - N/A   Mostly Cloudy
4:54 PM 39.6 °F 32.5 °F 34.3 °F 82% 29.35 in 10.0 mi ESE 11.5 mph - N/A   Mostly Cloudy
5:54 PM 39.9 °F 32.9 °F 34.3 °F 80% 29.37 in 10.0 mi ESE 11.5 mph - N/A   Mostly Cloudy
6:54 PM 36.9 °F 34.3 °F 32.9 °F 86% 29.37 in 10.0 mi ESE 3.5 mph - N/A   Overcast
7:54 PM 38.3 °F 35.9 °F 32.9 °F 81% 29.35 in 10.0 mi East 3.5 mph - N/A   Overcast
8:54 PM 37.8 °F 35.3 °F 34.9 °F 89% 29.35 in 10.0 mi East 3.5 mph - N/A   Overcast
9:54 PM 38.1 °F 32.3 °F 36.9 °F 95% 29.33 in 9.0 mi East 8.1 mph - N/A Rain Light Rain
10:54 PM 37.4 °F 33.8 °F 36.9 °F 98% 29.32 in 9.0 mi East 4.6 mph - N/A Rain Light Rain
11:54 PM 37.4 °F 33.8 °F 36.9 °F 98% 29.32 in 9.0 mi East 4.6 mph - N/A Rain Light Rain